Flag Weather past 2 weeks in Stolberg (Rheinland), North Rhine-Westphalia, Germany

Now
63 °F

Sunny.


Feels Like: 63 °F
Forecast: 50 / 66 °F
Wind: 2 mph from Southwest

Location: Geilenkirchen Airport

Current Time: Oct 30, 2014 at 2:17:14 PM

Latest Report: Oct 30, 2014 at 12:50 PM


Visibility: 10 mi

Pressure: 30.21 "Hg

Humidity: 83%

Dew point: 57 °F

Location of Stolberg (Rheinland)Location

Historic Weather in Stolberg (Rheinland) — Graph

°F

Stolberg (Rheinland) temperature yesterday

Maximum temperature yesterday: 54 °F (at 11:50 PM)
Minimum temperature yesterday: 36 °F (at 4:50 AM)
Average temperature yesterday: 48 °F

Past Weeks' High & Low Weather Summary

 TemperatureHumidityPressure
High75 °F (Oct 18, 2:50 PM)100% (Oct 17, 1:50 AM)30.27 "Hg (Oct 17, 1:50 AM)
Low36 °F (Oct 29, 4:50 AM)0% (Oct 17, 6:50 AM)29.53 "Hg (Oct 21, 3:50 PM)
Average55 °F86%30.03 "Hg
* Reported Oct 15 1:50 PM — Oct 30 12:50 PM, Stolberg (Rheinland), Weather by CustomWeather, © 2014

Note: Actual official high and low records may vary slightly from our data, if they occured in-between our weather recording intervals... More about our weather records

Advertising

Stolberg (Rheinland) weather history for previous 24 hours

 ConditionsComfort  
Time TempWeatherWind HumidityBarometerVisibility
12:50 PM
Oct 30
63 °FSunny.2 mph83%30.21 "Hg10 mi
11:50 AM61 °FPartly sunny.5 mph88%30.21 "HgN/A
10:50 AM59 °FPartly sunny.5 mph94%30.21 "HgN/A
9:50 AM55 °FLight rain. Fog.3 mph100%30.21 "Hg1 mi
8:50 AM54 °FFog.3 mph100%30.21 "Hg1 mi
7:50 AM54 °FFog.2 mph100%30.18 "Hg1 mi
6:50 AM54 °FFog.2 mph100%30.18 "Hg1 mi
5:50 AM54 °FFog.3 mph100%30.18 "Hg1 mi
4:50 AM54 °FFog.1 mph100%30.15 "Hg1 mi
3:50 AM54 °FFog.3 mph100%30.15 "Hg1 mi
2:50 AM54 °FFog.2 mph100%30.15 "Hg2 mi
1:50 AM54 °FDrizzle. Fog.3 mph100%30.15 "Hg2 mi
12:50 AM54 °FDrizzle. Fog.2 mph100%30.15 "Hg2 mi
11:50 PM
Oct 29
54 °FFog.2 mph94%30.15 "Hg3 mi
10:50 PM52 °FFog.3 mph100%30.12 "Hg3 mi
9:50 PM52 °FLow clouds.3 mph100%30.12 "Hg4 mi
8:50 PM52 °FDrizzle. Fog.2 mph100%30.12 "Hg2 mi
7:50 PM52 °FDrizzle. Fog.3 mph100%30.12 "Hg1 mi
6:50 PM52 °FDrizzle. Fog.6 mph100%30.09 "Hg1 mi
5:50 PM52 °FDrizzle. Fog.3 mph100%30.09 "Hg2 mi
4:50 PM52 °FDrizzle. Fog.3 mph100%30.07 "Hg2 mi
3:50 PM52 °FDrizzle. Fog.2 mph100%30.07 "Hg2 mi
2:50 PM52 °FDrizzle. Partly sunny.2 mph94%30.07 "Hg2 mi
Weather by CustomWeather, © 2014

See weather overviewHow to use our weather pages